Weather History for KRME - October, 2012

Change the Weather History Date:

Wednesday, October 24, 2012

  Actual Average Record
Temperature  
Mean Temperature 52 °F -  
Max Temperature 53 °F 57 °F 73 °F (1991)
Min Temperature 50 °F 35 °F 25 °F (1969)
Degree Days  
Heating Degree Days 14    
Growing Degree Days 2 (Base 50)    
Moisture  
Dew Point 44 °F    
Average Humidity 75    
Maximum Humidity 89    
Minimum Humidity 66    
Precipitation  
Precipitation 0.00 in - - ()
Sea Level Pressure  
Sea Level Pressure 30.15 in    
Wind  
Wind Speed 8 mph (ESE)    
Max Wind Speed 13 mph    
Max Gust Speed 17 mph    
Visibility 10 miles    
Events      
Averages and records for this station are not official NWS values.
T = Trace of Precipitation, MM = Missing Value Source: NWS Daily Summary

Daily Weather History Graph

Daily Weather History Graph

Search for Another Location

Airport or City:

Trip Planner

Search our weather history database for the weather conditions in past years. The results will help you decide how hot, cold, wet, or windy it might be!

Date:

Astronomy

Oct. 24, 2012 Rise Set
Actual Time 7:27 AM EDT 6:03 PM EDT
Civil Twilight 6:57 AM EDT 6:32 PM EDT
Nautical Twilight 6:24 AM EDT 7:06 PM EDT
Astronomical Twilight 5:51 AM EDT 7:39 PM EDT
Moon 3:25 PM EDT (10/24) 2:11 AM EDT (10/24)
Length of Visible Light 11h 35m
Length of Day
10h 36m
Waxing Gibbous, 76% of the Moon is Illuminated
Oct 24
Waxing Gibbous
Oct 29
Full
Nov 6
Last Quarter
Nov 13
New
Nov 20
First Quarter

Hourly Weather History & Observations

Time (EDT) Temp. Dew Point Humidity Pressure Visibility Wind Dir Wind Speed Gust Speed Precip Events Conditions
12:53 AM 52.0 °F 48.9 °F 89% 30.12 in 10.0 mi ESE 5.8 mph - N/A   Overcast
1:53 AM 52.0 °F 48.0 °F 86% 30.12 in 10.0 mi ESE 6.9 mph - N/A   Overcast
2:53 AM 52.0 °F 48.0 °F 86% 30.11 in 10.0 mi SE 6.9 mph - N/A   Overcast
3:53 AM 52.0 °F 46.9 °F 83% 30.11 in 10.0 mi ESE 6.9 mph - N/A   Overcast
4:53 AM 52.0 °F 46.0 °F 80% 30.12 in 10.0 mi ESE 8.1 mph - N/A   Overcast
5:53 AM 51.1 °F 43.0 °F 74% 30.14 in 10.0 mi SE 5.8 mph - N/A   Overcast
6:53 AM 51.1 °F 42.1 °F 71% 30.14 in 10.0 mi ESE 10.4 mph - N/A   Overcast
7:53 AM 50.0 °F 41.0 °F 71% 30.15 in 10.0 mi ESE 10.4 mph - N/A   Overcast
8:53 AM 51.1 °F 41.0 °F 68% 30.16 in 10.0 mi ESE 12.7 mph 17.3 mph N/A   Overcast
9:53 AM 51.1 °F 39.9 °F 66% 30.17 in 10.0 mi ESE 11.5 mph - N/A   Overcast
10:53 AM 51.1 °F 42.1 °F 71% 30.16 in 10.0 mi ESE 11.5 mph - N/A   Overcast
11:53 AM 51.1 °F 43.0 °F 74% 30.16 in 10.0 mi ESE 9.2 mph - N/A   Overcast
12:53 PM 51.1 °F 45.0 °F 80% 30.14 in 10.0 mi ESE 8.1 mph - N/A   Overcast
1:53 PM 53.1 °F 44.1 °F 71% 30.13 in 10.0 mi SE 6.9 mph - N/A   Overcast
2:53 PM 52.0 °F 44.1 °F 74% 30.12 in 10.0 mi SE 8.1 mph - N/A   Overcast
3:53 PM 52.0 °F 44.1 °F 74% 30.14 in 10.0 mi ESE 6.9 mph - N/A   Overcast
4:53 PM 53.1 °F 45.0 °F 74% 30.13 in 10.0 mi SE 8.1 mph - N/A   Overcast
5:53 PM 52.0 °F 44.1 °F 74% 30.14 in 10.0 mi ESE 6.9 mph - N/A   Overcast
6:53 PM 52.0 °F 44.1 °F 74% 30.17 in 10.0 mi ESE 5.8 mph - N/A   Overcast
7:53 PM 52.0 °F 44.1 °F 74% 30.17 in 10.0 mi East 6.9 mph - N/A   Overcast
9:53 PM 52.0 °F 44.1 °F 74% 30.19 in 10.0 mi ESE 5.8 mph - N/A   Overcast
10:53 PM 52.0 °F 44.1 °F 74% 30.18 in 10.0 mi ESE 6.9 mph - N/A   Overcast
11:53 PM 52.0 °F 44.1 °F 74% 30.18 in 10.0 mi East 4.6 mph - N/A   Overcast